Modesto, CA

3:48 PM PST on November 21, 2017 (GMT -0800)
Modesto City-County-Sham

Weather History for KMOD - March, 2013

Change the Weather History Date:

Friday, March 8, 2013

  Actual Average Record
Temperature  
Mean Temperature 55 °F -  
Max Temperature 65 °F 68 °F 82 °F (1993)
Min Temperature 44 °F 46 °F 30 °F (1964)
Degree Days  
Heating Degree Days 10 8  
Month to date heating degree days 68 70  
Since 1 July heating degree days 1981 1838  
Cooling Degree Days 0 0  
Month to date cooling degree days 0 0  
Year to date cooling degree days 0 0  
Growing Degree Days 4 (Base 50)    
Moisture  
Dew Point 39 °F    
Average Humidity 64    
Maximum Humidity 93    
Minimum Humidity 34    
Precipitation  
Precipitation 0.00 in 0.08 in 0.83 in (1943)
Month to date precipitation 0.08 0.63  
Year to date precipitation 1.67 5.62  
Since 1 July precipitation 7.55  
Snow  
Snow 0.00 in - - ()
Month to date snowfall 0.0  
Since 1 July snowfall 0.0  
Snow Depth -    
Sea Level Pressure  
Sea Level Pressure 29.88 in    
Wind  
Wind Speed 6 mph (NW)    
Max Wind Speed 20 mph    
Max Gust Speed 29 mph    
Visibility 10 miles    
Events      
T = Trace of Precipitation, MM = Missing Value Source: NWS Daily Summary

Daily Weather History Graph

Daily Weather History Graph

Search for Another Location

Airport or City:

Trip Planner

Search our weather history database for the weather conditions in past years. The results will help you decide how hot, cold, wet, or windy it might be!

Date:

Astronomy

Mar. 08, 2013 Rise Set
Actual Time 6:24 AM PST 6:04 PM PST
Civil Twilight 5:58 AM PST 6:30 PM PST
Nautical Twilight 5:28 AM PST 7:01 PM PST
Astronomical Twilight 4:57 AM PST 7:31 PM PST
Moon 4:09 AM PST (3/8) 3:08 PM PST (3/8)
Length of Visible Light 12h 32m
Length of Day
11h 40m
Waning Crescent, 11% of the Moon is Illuminated
Mar 8
Waning Crescent
Mar 11
New
Mar 19
First Quarter
Mar 27
Full
Apr 2
Last Quarter

Hourly Weather History & Observations

Time (PST) Temp. Windchill Dew Point Humidity Pressure Visibility Wind Dir Wind Speed Gust Speed Precip Events Conditions
12:53 AM 48.9 °F - 46.9 °F 93% 29.86 in 10.0 mi Calm Calm - N/A   Overcast
1:53 AM 48.9 °F - 46.9 °F 93% 29.84 in 10.0 mi WNW 3.5 mph - N/A   Overcast
2:53 AM 48.0 °F - 46.0 °F 93% 29.83 in 10.0 mi Calm Calm - N/A   Mostly Cloudy
3:53 AM 46.0 °F 44.8 °F 45.0 °F 96% 29.81 in 7.0 mi WNW 3.5 mph - N/A   Partly Cloudy
4:53 AM 46.0 °F 42.5 °F 45.0 °F 96% 29.81 in 8.0 mi WNW 6.9 mph - N/A   Mostly Cloudy
5:53 AM 45.0 °F - 43.0 °F 93% 29.81 in 10.0 mi Calm Calm - N/A   Clear
6:53 AM 44.1 °F 38.1 °F 39.9 °F 85% 29.82 in 10.0 mi WNW 11.5 mph - N/A   Clear
7:53 AM 46.9 °F - 37.0 °F 68% 29.84 in 10.0 mi NW 12.7 mph - N/A   Clear
8:53 AM 50.0 °F - 37.9 °F 63% 29.86 in 10.0 mi NNW 10.4 mph - N/A   Clear
9:53 AM 53.1 °F - 39.0 °F 59% 29.86 in 10.0 mi NW 12.7 mph - N/A   Clear
10:53 AM 57.0 °F - 36.0 °F 45% 29.86 in 10.0 mi NW 16.1 mph 23.0 mph N/A   Clear
11:53 AM 62.1 °F - 37.0 °F 39% 29.86 in 10.0 mi WNW 16.1 mph 21.9 mph N/A   Clear
12:53 PM 62.1 °F - 35.1 °F 37% 29.86 in 10.0 mi NW 13.8 mph 19.6 mph N/A   Clear
1:53 PM 64.0 °F - 36.0 °F 35% 29.84 in 10.0 mi NNW 10.4 mph 17.3 mph N/A   Clear
2:53 PM 64.0 °F - 36.0 °F 35% 29.85 in 10.0 mi West 13.8 mph - N/A   Scattered Clouds
3:53 PM 63.0 °F - 32.0 °F 31% 29.85 in 10.0 mi WNW 10.4 mph - N/A   Clear
4:53 PM 62.1 °F - 30.0 °F 30% 29.87 in 10.0 mi West 15.0 mph - N/A   Clear
5:53 PM 57.0 °F - 36.0 °F 45% 29.89 in 10.0 mi WNW 9.2 mph - N/A   Clear
6:53 PM 53.1 °F - 37.0 °F 55% 29.92 in 10.0 mi NW 10.4 mph - N/A   Clear
7:53 PM 51.1 °F - 37.0 °F 59% 29.96 in 10.0 mi NNW 8.1 mph - N/A   Clear
8:53 PM 50.0 °F - 37.9 °F 63% 29.99 in 10.0 mi NE 9.2 mph - N/A   Clear
9:53 PM 48.9 °F - 39.0 °F 69% 30.01 in 10.0 mi ENE 9.2 mph - N/A   Clear
10:53 PM 48.0 °F - 43.0 °F 83% 30.03 in 10.0 mi Calm Calm - N/A   Mostly Cloudy
11:53 PM 46.9 °F - 42.1 °F 83% 30.05 in 10.0 mi Calm Calm - N/A   Clear